Beaumont, TX

2:39 PM CDT on March 29, 2017 (GMT -0500)
Southeast Texas Regional

Weather History for KBPT - November, 2011

Change the Weather History Date:

Tuesday, November 22, 2011

  Actual Average Record
Temperature  
Mean Temperature 70 °F 60 °F  
Max Temperature 81 °F 70 °F 84 °F (1905)
Min Temperature 58 °F 50 °F 33 °F (1975)
Degree Days  
Heating Degree Days 0 7  
Month to date heating degree days 68 98  
Since 1 July heating degree days 105 132  
Cooling Degree Days 5 1  
Month to date cooling degree days 114 55  
Year to date cooling degree days 3489 2846  
Growing Degree Days 18 (Base 50)    
Moisture  
Dew Point 65 °F    
Average Humidity 88    
Maximum Humidity 97    
Minimum Humidity 79    
Precipitation  
Precipitation 0.25 in 0.15 in 3.03 in (1902)
Month to date precipitation 0.71 3.23  
Year to date precipitation 26.52 54.01  
Snow  
Snow 0.00 in 0.00 in 0.00 in ()
Month to date snowfall 0.0 0.0  
Since 1 July snowfall 0.0 0.0  
Since 1 September snowfall 0.0 0.0  
Snow Depth 0.00 in    
Sea Level Pressure  
Sea Level Pressure 29.99 in    
Wind  
Wind Speed 10 mph (NW)    
Max Wind Speed 21 mph    
Max Gust Speed 28 mph    
Visibility 8 miles    
Events Rain    
T = Trace of Precipitation, MM = Missing Value Source: NWS Daily Summary

Daily Weather History Graph

Daily Weather History Graph

Search for Another Location

Airport or City:

Trip Planner

Search our weather history database for the weather conditions in past years. The results will help you decide how hot, cold, wet, or windy it might be!

Date:

Astronomy

Nov. 22, 2011 Rise Set
Actual Time 6:46 AM CST 5:17 PM CST
Civil Twilight 6:21 AM CST 5:43 PM CST
Nautical Twilight 5:51 AM CST 6:12 PM CST
Astronomical Twilight 5:23 AM CST 6:40 PM CST
Moon 3:47 AM CST (11/22) 3:10 PM CST (11/22)
Length of Visible Light 11h 22m
Length of Day
10h 30m
Waning Crescent, 9% of the Moon is Illuminated
Nov 22
Waning Crescent
Nov 25
New
Dec 2
First Quarter
Dec 10
Full
Dec 17
Last Quarter

Hourly Weather History & Observations

Time (CST) Temp. Dew Point Humidity Pressure Visibility Wind Dir Wind Speed Gust Speed Precip Events Conditions
12:53 AM 73.0 °F 70.0 °F 90% 29.98 in 9.0 mi South 9.2 mph - N/A   Clear
1:29 AM 71.6 °F 69.8 °F 94% 29.97 in 8.0 mi South 5.8 mph - N/A   Mostly Cloudy
1:53 AM 72.0 °F 69.1 °F 91% 29.97 in 7.0 mi South 3.5 mph - N/A   Overcast
2:26 AM 71.6 °F 69.8 °F 94% 29.96 in 6.0 mi SSE 8.1 mph - N/A   Overcast
2:53 AM 73.0 °F 70.0 °F 90% 29.95 in 7.0 mi SSE 10.4 mph - N/A   Mostly Cloudy
3:53 AM 73.9 °F 71.1 °F 91% 29.93 in 9.0 mi South 11.5 mph - N/A   Overcast
4:53 AM 73.4 °F 69.8 °F 88% 29.92 in 9.0 mi South 12.7 mph - N/A   Overcast
5:53 AM 73.9 °F 71.1 °F 91% 29.92 in 10.0 mi South 12.7 mph - N/A   Mostly Cloudy
6:53 AM 73.9 °F 71.1 °F 91% 29.93 in 9.0 mi South 12.7 mph 18.4 mph N/A   Mostly Cloudy
7:17 AM 75.2 °F 71.6 °F 89% 29.93 in 8.0 mi South 12.7 mph 18.4 mph N/A   Overcast
7:53 AM 75.9 °F 72.0 °F 87% 29.95 in 9.0 mi South 12.7 mph 20.7 mph N/A   Overcast
8:53 AM 78.1 °F 72.0 °F 81% 29.96 in 10.0 mi South 13.8 mph 21.9 mph N/A   Overcast
9:53 AM 78.8 °F 71.6 °F 78% 29.97 in 10.0 mi SSW 12.7 mph 23.0 mph N/A   Overcast
10:41 AM 78.8 °F 71.6 °F 78% 29.98 in 10.0 mi WSW 16.1 mph 27.6 mph 0.00 in   Overcast
10:51 AM 71.6 °F 66.2 °F 83% 29.99 in 7.0 mi NW 13.8 mph - 0.01 in Rain Light Rain
10:53 AM 72.0 °F 66.0 °F 81% 29.99 in 7.0 mi NW 13.8 mph - 0.01 in Rain Light Rain
11:38 AM 69.8 °F 66.2 °F 88% 30.01 in 2.0 mi West 8.1 mph - 0.01 in Rain Heavy Rain
11:51 AM 69.8 °F 66.2 °F 88% 29.99 in 10.0 mi WNW 6.9 mph - 0.04 in Rain Light Rain
11:53 AM 70.0 °F 66.9 °F 90% 29.99 in 10.0 mi WNW 5.8 mph - 0.04 in Rain Light Rain
12:32 PM 69.8 °F 66.2 °F 88% 29.97 in 1.5 mi NNW 8.1 mph - 0.02 in Rain Heavy Rain
12:37 PM 69.8 °F 66.2 °F 88% 29.96 in 0.8 mi NNW 8.1 mph - 0.16 in Rain Heavy Rain
12:42 PM 69.8 °F 66.2 °F 88% 29.96 in 1.5 mi NNW 8.1 mph - 0.18 in Rain Light Rain
12:45 PM 69.8 °F 66.2 °F 88% 29.96 in 3.0 mi NNW 6.9 mph - 0.18 in Rain Light Rain
12:53 PM 70.0 °F 66.9 °F 90% 29.96 in 8.0 mi NNW 5.8 mph - 0.18 in Rain Light Rain
1:24 PM 69.8 °F 68.0 °F 94% 29.95 in 8.0 mi North 8.1 mph - 0.01 in Rain Light Rain
1:53 PM 70.0 °F 68.0 °F 93% 29.96 in 8.0 mi Calm Calm - 0.02 in Rain Light Rain
2:27 PM 71.6 °F 68.0 °F 88% 29.95 in 10.0 mi North 3.5 mph - 0.00 in   Overcast
2:53 PM 72.0 °F 66.9 °F 84% 29.95 in 10.0 mi NNW 6.9 mph - 0.00 in   Overcast
3:36 PM 71.6 °F 66.2 °F 83% 29.96 in 10.0 mi NW 13.8 mph - N/A   Overcast
3:48 PM 69.8 °F 66.2 °F 88% 29.96 in 10.0 mi NW 9.2 mph - N/A   Mostly Cloudy
3:53 PM 70.0 °F 66.0 °F 87% 29.96 in 10.0 mi NW 9.2 mph - N/A   Overcast
4:53 PM 68.0 °F 63.0 °F 84% 29.98 in 10.0 mi NW 11.5 mph - N/A   Overcast
5:08 PM 66.2 °F 62.6 °F 88% 29.99 in 10.0 mi NW 10.4 mph - N/A   Overcast
5:31 PM 66.2 °F 60.8 °F 83% 30.00 in 10.0 mi NNW 11.5 mph - N/A   Overcast
5:53 PM 64.9 °F 59.0 °F 81% 30.01 in 10.0 mi NW 8.1 mph - N/A   Mostly Cloudy
6:06 PM 64.4 °F 59.0 °F 83% 30.02 in 10.0 mi NW 10.4 mph - N/A   Mostly Cloudy
6:50 PM 62.6 °F 57.2 °F 82% 30.05 in 10.0 mi NNW 9.2 mph - N/A   Mostly Cloudy
6:53 PM 62.6 °F 57.2 °F 82% 30.05 in 10.0 mi NNW 11.5 mph - N/A   Mostly Cloudy
7:24 PM 60.8 °F 55.4 °F 82% 30.06 in 10.0 mi North 15.0 mph - N/A   Overcast
7:53 PM 60.1 °F 55.0 °F 83% 30.08 in 10.0 mi North 13.8 mph - N/A   Overcast
8:53 PM 57.9 °F 54.0 °F 87% 30.12 in 10.0 mi NNW 10.4 mph - N/A   Overcast
9:53 PM 59.0 °F 53.1 °F 81% 30.13 in 10.0 mi NNW 11.5 mph 21.9 mph N/A   Overcast
10:53 PM 59.0 °F 53.1 °F 81% 30.13 in 10.0 mi North 16.1 mph - N/A   Overcast
11:53 PM 57.9 °F 52.0 °F 81% 30.14 in 10.0 mi North 10.4 mph - N/A   Overcast